Location: Niverville
(49.6028°N, 97.0419°W)
Time: 05:49:59
(UTC-05:00)

Amateur Radio Satellites - All Passes

Search period start: 31 August 2015 05:19
Search period end: 01 September 2015 05:19
Location: Niverville, 49.6028°N, 97.0419°W

Satellite Date Start Highest point End Downlink Frequencies (MHz)
Time Altitude Azimuth
MOZHAYETS 4 31 Aug 05:20:24 05:24:57 56° 260° (W) 05:29:30
Cosmos 2499 31 Aug 05:24:14 05:32:44 77° 96° (E) 05:41:39 435.465 / 435.565
JAS-2 31 Aug 05:31:00 05:38:07 55° 294° (WNW) 05:44:24 435.910
Oscar 19 31 Aug 05:33:15 05:33:46 10° 311° (NW) 05:34:03 437.125/150
CUBESAT XI-V 31 Aug 05:35:30 05:39:14 26° 64° (ENE) 05:43:03 437.345
O/OREOS (USA 219) 31 Aug 05:54:16 05:58:49 59° 248° (WSW) 06:03:19 437.305
SO-50 31 Aug 05:54:47 05:57:48 16° 349° (NNW) 06:00:48 436.795
GONETS M04 31 Aug 05:55:35 06:03:01 29° 301° (WNW) 06:10:21
Gurwin Techsat 1B 31 Aug 06:05:11 06:08:08 15° 307° (NW) 06:10:53 435.225
HORYU 2 31 Aug 06:12:53 06:17:16 52° 290° (WNW) 06:21:35 437.375
PCSat 31 Aug 06:21:11 06:24:29 16° 341° (NNW) 06:27:43 145.827
Cubesat XI-IV 31 Aug 06:21:34 06:23:19 12° 83° (E) 06:25:22 437.490
PRISM 31 Aug 06:25:20 06:27:44 16° 60° (ENE) 06:30:16 437.425
ITAMSAT 1 31 Aug 06:29:01 06:30:47 11° 309° (NW) 06:32:19 435.822/435.867
VERMONT LUNAR 31 Aug 06:30:35 06:32:16 14° 175° (S) 06:33:59 437.305
STRAND 1 31 Aug 06:41:33 06:46:07 35° 65° (ENE) 06:50:45 437.568
AO-7 31 Aug 07:03:57 07:11:51 49° 301° (WNW) 07:19:39 29.400- 29.500
CUTE-I 31 Aug 07:04:50 07:09:20 28° 93° (E) 07:13:54 437.470
CUBESAT XI-V 31 Aug 07:12:04 07:16:29 45° 262° (W) 07:20:55 437.345
JAS-2 31 Aug 07:17:37 07:21:36 15° 316° (NW) 07:25:10 435.910
YUBILEINY 31 Aug 07:17:58 07:24:53 25° 55° (NE) 07:32:01 435.215
Cosmos 2499 31 Aug 07:19:24 07:26:57 31° 301° (WNW) 07:34:33 435.465 / 435.565
SO-50 31 Aug 07:37:08 07:40:13 16° 13° (NNE) 07:43:20 436.795
PRISM 31 Aug 07:58:39 08:02:44 67° 257° (WSW) 08:06:49 437.425
Cubesat XI-IV 31 Aug 07:59:08 08:04:29 75° 103° (ESE) 08:09:49 437.490
BRITE-PL 31 Aug 08:05:24 08:09:41 24° 90° (E) 08:14:13 437.365/2234.400
VERMONT LUNAR 31 Aug 08:06:38 08:08:01 13° 191° (S) 08:09:23 437.305
PCSat 31 Aug 08:07:52 08:10:13 13° 7° (N) 08:12:37 145.827
AIST 1 31 Aug 08:10:25 08:13:28 20° 87° (E) 08:16:36
Cosmos 2491 31 Aug 08:14:10 08:19:28 19° 75° (ENE) 08:25:11 435.465 / 435.565
STRAND 1 31 Aug 08:20:35 08:25:19 37° 263° (W) 08:30:03 437.568
PHONESAT 2.4 31 Aug 08:34:50 08:37:06 17° 173° (S) 08:39:22 2401.200-2431.200
GOMX 1 31 Aug 08:38:09 08:42:43 28° 91° (E) 08:47:25 467.674
Cosmos 2504 31 Aug 08:40:03 08:43:25 13° 41° (NE) 08:47:11 435.465 / 435.565
CANX-2 31 Aug 08:41:10 08:41:43 10° 84° (E) 08:42:30 2200.000
CUTE-I 31 Aug 08:44:33 08:49:42 50° 292° (WNW) 08:54:49 437.470
DOVE 4 31 Aug 08:55:34 08:59:50 25° 90° (E) 09:04:12 437.250
AO-7 31 Aug 08:58:03 09:02:50 17° 325° (NW) 09:07:23 29.400- 29.500
CUSAT 1 31 Aug 09:01:42 09:03:09 11° 43° (NE) 09:05:05 437.405
SEEDS 31 Aug 09:02:52 09:04:40 13° 86° (E) 09:06:40 437.485
HO-68 31 Aug 09:07:44 09:13:42 28° 91° (E) 09:19:46 435.675
YUBILEINY 31 Aug 09:14:16 09:23:12 89° 87° (E) 09:32:02 435.215
SO-50 31 Aug 09:17:33 09:22:09 36° 36° (NE) 09:26:42 436.795
ANTELSAT 31 Aug 09:23:00 09:25:07 13° 56° (NE) 09:27:27 437.575/2403.000
DANDE 31 Aug 09:24:46 09:25:39 10° 45° (NE) 09:26:59 436.750
COMPASS 1 31 Aug 09:25:17 09:27:59 17° 89° (E) 09:30:47 437.405
AAUSAT CUBESAT 2 31 Aug 09:35:59 09:38:52 18° 90° (E) 09:41:50 437.432
Cubesat XI-IV 31 Aug 09:40:09 09:44:06 21° 302° (WNW) 09:47:54 437.490
CUBEBUG 2 31 Aug 09:42:42 09:44:58 14° 84° (E) 09:47:25 437.445
BRITE-PL 31 Aug 09:43:14 09:48:35 64° 288° (WNW) 09:54:11 437.365/2234.400
CINEMA 3 31 Aug 09:46:14 09:50:40 31° 93° (E) 09:55:04 145.822/145.860
AIST 1 31 Aug 09:46:44 09:50:49 45° 286° (WNW) 09:54:57
PCSat 31 Aug 09:51:14 09:55:38 25° 32° (NNE) 10:00:05 145.827
UWE-3 31 Aug 09:51:23 09:53:18 13° 84° (E) 09:55:26 435.000/436.395/437.385
AUBIESAT-1 31 Aug 09:59:27 10:03:38 33° 60° (ENE) 10:07:46 437.475
CUTE 1.7 + AOD 2 31 Aug 10:00:15 10:04:27 58° 100° (E) 10:08:36 437.475
M-CUBED/EXP-1 PRIME 31 Aug 10:03:47 10:08:15 40° 62° (ENE) 10:12:39 437.505
DELFI C3 31 Aug 10:06:16 10:07:23 11° 85° (E) 10:08:43 145.870
Cosmos 2491 31 Aug 10:06:21 10:15:02 78° 96° (E) 10:23:46 435.465 / 435.565
UNISAT 6 31 Aug 10:11:30 10:15:38 32° 65° (ENE) 10:19:50 437.425
PHONESAT 2.4 31 Aug 10:12:05 10:14:16 16° 189° (S) 10:16:27 2401.200-2431.200
QB50P2 31 Aug 10:14:04 10:16:15 14° 58° (ENE) 10:18:36 145.880/145.840
CANX-2 31 Aug 10:14:08 10:18:25 88° 106° (ESE) 10:22:38 2200.000
NANOSAT C BR1 31 Aug 10:15:40 10:17:48 14° 58° (ENE) 10:20:05 145.865
GOMX 1 31 Aug 10:15:50 10:21:05 53° 290° (WNW) 10:26:26 467.674
CUTE-I 31 Aug 10:27:50 10:28:42 10° 311° (NW) 10:29:19 437.470
QB50P1 31 Aug 10:28:12 10:31:04 18° 61° (ENE) 10:34:03 145.935-145.965
Cosmos 2504 31 Aug 10:30:20 10:38:32 46° 69° (ENE) 10:46:22 435.465 / 435.565
DOVE 4 31 Aug 10:32:43 10:37:56 57° 289° (WNW) 10:43:07 437.250
ISS 31 Aug 10:33:13 10:36:11 33° 148° (SSE) 10:39:10 145.825
SEEDS 31 Aug 10:36:51 10:41:04 75° 286° (WNW) 10:45:13 437.485
HUMSAT D 31 Aug 10:37:44 10:38:13 10° 84° (E) 10:38:56 437.325/437.525
Oscar 11 31 Aug 10:38:57 10:42:59 37° 96° (E) 10:47:00 145.826/435.025
TIGRISAT 31 Aug 10:39:48 10:44:22 54° 71° (ENE) 10:49:00 435.000
CUSAT 1 31 Aug 10:41:03 10:47:52 39° 66° (ENE) 10:55:31 437.405
HO-68 31 Aug 10:54:55 11:02:06 71° 292° (WNW) 11:09:15 435.675
ANTELSAT 31 Aug 10:56:29 11:01:11 78° 74° (ENE) 11:05:56 437.575/2403.000
SO-50 31 Aug 10:58:04 11:02:54 51° 237° (WSW) 11:07:36 436.795
COMPASS 1 31 Aug 10:59:57 11:04:02 54° 288° (WNW) 11:08:03 437.405
DANDE 31 Aug 11:04:10 11:10:45 40° 67° (ENE) 11:18:30 436.750
AAUSAT CUBESAT 2 31 Aug 11:10:45 11:14:47 49° 289° (WNW) 11:18:46 437.432
YUBILEINY 31 Aug 11:12:20 11:18:59 24° 282° (WNW) 11:25:18 435.215
CUBEBUG 2 31 Aug 11:17:37 11:22:24 84° 285° (WNW) 11:27:01 437.445
VELOX 1 31 Aug 11:20:01 11:21:09 11° 85° (E) 11:22:32 145.980
ZACube-1 31 Aug 11:20:27 11:25:00 66° 101° (ESE) 11:29:25 437.345
CINEMA 3 31 Aug 11:23:14 11:27:58 41° 292° (WNW) 11:32:35 145.822/145.860
BRITE-PL 31 Aug 11:23:42 11:26:16 13° 306° (NW) 11:28:39 437.365/2234.400
UWE-3 31 Aug 11:25:55 11:30:36 87° 285° (WNW) 11:35:07 435.000/436.395/437.385
FUNcube-1 31 Aug 11:26:08 11:30:41 73° 102° (ESE) 11:35:07 145.935
POLYITAN 1 31 Aug 11:27:40 11:31:55 63° 72° (ENE) 11:36:12 437.675
POPSAT HIP 1 31 Aug 11:30:32 11:34:45 66° 73° (ENE) 11:39:02 437.405
DUCHIFAT 1 31 Aug 11:31:33 11:35:45 65° 73° (ENE) 11:40:00 145.980
AUBIESAT-1 31 Aug 11:33:46 11:38:14 39° 257° (WSW) 11:42:36 437.475
PCSat 31 Aug 11:34:21 11:39:49 89° 46° (NE) 11:45:16 145.827
CUTE 1.7 + AOD 2 31 Aug 11:37:01 11:40:00 18° 298° (WNW) 11:42:50 437.475
M-CUBED/EXP-1 PRIME 31 Aug 11:38:44 11:43:03 32° 260° (W) 11:47:17 437.505
DELFI C3 31 Aug 11:39:03 11:43:04 79° 284° (WNW) 11:47:03 145.870
BUGSAT 1 31 Aug 11:41:59 11:45:57 53° 71° (ENE) 11:50:01 437.445
QB50P2 31 Aug 11:47:18 11:51:35 83° 254° (WSW) 11:55:55 145.880/145.840
UNISAT 6 31 Aug 11:47:58 11:52:20 37° 264° (W) 11:56:43 437.425
NANOSAT C BR1 31 Aug 11:48:48 11:53:04 83° 259° (W) 11:57:22 145.865
CANX-2 31 Aug 11:51:43 11:53:44 13° 302° (WNW) 11:55:37 2200.000
GOMX 1 31 Aug 11:56:33 11:58:13 11° 308° (NW) 11:59:37 467.674
Oscar 19 31 Aug 11:57:28 11:59:02 12° 51° (NE) 12:00:49 437.125/150
QB50P1 31 Aug 12:02:19 12:06:31 60° 259° (WSW) 12:10:48 145.935-145.965
Cosmos 2491 31 Aug 12:05:30 12:12:58 30° 301° (WNW) 12:20:18 435.465 / 435.565
DX 1 31 Aug 12:05:57 12:10:10 44° 99° (E) 12:14:23 434.975-435.025
GONETS M04 31 Aug 12:06:00 12:09:58 14° 42° (NE) 12:14:22
ISS 31 Aug 12:09:11 12:12:26 73° 348° (NNW) 12:15:41 145.825
HUMSAT D 31 Aug 12:10:25 12:14:44 87° 103° (ESE) 12:18:57 437.325/437.525
ESTCUBE 1 31 Aug 12:10:36 12:14:23 27° 93° (E) 12:18:14 437.505/2401.250
DOVE 4 31 Aug 12:12:48 12:14:42 12° 308° (NW) 12:16:21 437.250
SEEDS 31 Aug 12:15:07 12:16:09 11° 304° (WNW) 12:16:58 437.485
Oscar 11 31 Aug 12:15:22 12:19:03 27° 295° (WNW) 12:22:40 145.826/435.025
TIGRISAT 31 Aug 12:17:47 12:21:27 22° 270° (W) 12:25:02 435.000
UKube-1 31 Aug 12:19:26 12:23:43 54° 101° (E) 12:27:59 .
50 SAT 31 Aug 12:21:55 12:25:43 51° 100° (E) 12:29:29 437.505
Cosmos 2504 31 Aug 12:22:43 12:30:53 49° 271° (W) 12:38:32 435.465 / 435.565
CUSAT 1 31 Aug 12:23:24 12:30:46 60° 264° (W) 12:38:50 437.405
AISAT 31 Aug 12:25:39 12:30:01 48° 99° (E) 12:34:22 437.250
SPROUT 31 Aug 12:27:45 12:29:02 11° 85° (E) 12:30:33 437.525
CUBEBUG 1 31 Aug 12:28:08 12:32:07 32° 95° (E) 12:36:07 437.445
ANTELSAT 31 Aug 12:35:48 12:38:36 15° 274° (W) 12:41:13 437.575/2403.000
AO-7 31 Aug 12:39:24 12:40:46 11° 22° (NNE) 12:42:23 29.400- 29.500
HO-68 31 Aug 12:43:49 12:48:46 20° 313° (NW) 12:53:29 435.675
DANDE 31 Aug 12:47:06 12:54:10 58° 264° (W) 13:02:20 436.750
VELOX 1 31 Aug 12:53:59 12:58:29 86° 107° (ESE) 13:02:58 145.980
ITAMSAT 1 31 Aug 12:55:50 12:56:46 11° 50° (NE) 12:57:56 435.822/435.867
CUBEBUG 2 31 Aug 12:55:51 12:58:22 14° 304° (WNW) 13:00:41 437.445
ZACube-1 31 Aug 12:57:44 13:00:54 18° 300° (WNW) 13:03:54 437.345
FUNcube-1 31 Aug 13:03:31 13:06:29 17° 301° (WNW) 13:09:17 145.935
UWE-3 31 Aug 13:03:57 13:06:26 14° 303° (WNW) 13:08:45 435.000/436.395/437.385
POLYITAN 1 31 Aug 13:05:34 13:08:17 16° 272° (W) 13:10:51 437.675
POPSAT HIP 1 31 Aug 13:08:33 13:11:07 15° 272° (W) 13:13:34 437.405
DUCHIFAT 1 31 Aug 13:09:28 13:12:03 15° 272° (W) 13:14:29 145.980
DELFI C3 31 Aug 13:16:42 13:17:28 10° 303° (WNW) 13:18:03 145.870
BUGSAT 1 31 Aug 13:19:00 13:21:47 17° 271° (W) 13:24:29 437.445
PCSat 31 Aug 13:19:05 13:22:35 17° 253° (WSW) 13:25:53 145.827
Cosmos 2499 31 Aug 13:20:05 13:22:18 11° 36° (NE) 13:24:57 435.465 / 435.565
TISAT 1 31 Aug 13:32:01 13:35:43 28° 94° (E) 13:39:26 437.305
Oscar 19 31 Aug 13:32:22 13:37:25 58° 70° (ENE) 13:42:33 437.125/150
DX 1 31 Aug 13:42:37 13:46:12 24° 297° (WNW) 13:49:42 434.975-435.025
ISS 31 Aug 13:45:47 13:49:01 61° 6° (N) 13:52:15 145.825
ESTCUBE 1 31 Aug 13:47:11 13:51:24 39° 292° (WNW) 13:55:35 437.505/2401.250
HUMSAT D 31 Aug 13:47:44 13:49:51 13° 302° (WNW) 13:51:49 437.325/437.525
UKube-1 31 Aug 13:56:16 13:59:30 20° 299° (WNW) 14:02:40 .
50 SAT 31 Aug 13:57:14 13:59:55 18° 298° (WNW) 14:02:28 437.505
GONETS M04 31 Aug 14:01:11 14:09:40 50° 70° (ENE) 14:18:14
SPROUT 31 Aug 14:01:28 14:05:50 89° 285° (WNW) 14:10:11 437.525
JAS-2 31 Aug 14:01:45 14:08:19 32° 57° (ENE) 14:15:00 435.910
AISAT 31 Aug 14:02:44 14:06:20 24° 297° (WNW) 14:09:51 437.250
CUBEBUG 1 31 Aug 14:04:30 14:08:28 32° 294° (WNW) 14:12:22 437.445
CUSAT 1 31 Aug 14:08:13 14:12:17 15° 281° (W) 14:16:02 437.405
BEESAT 31 Aug 14:08:14 14:10:33 14° 86° (E) 14:13:06 436.000
Gurwin Techsat 1B 31 Aug 14:09:41 14:14:39 43° 67° (ENE) 14:19:42 435.225
Cosmos 2504 31 Aug 14:19:38 14:21:02 10° 293° (WNW) 14:21:51 435.465 / 435.565
AO-7 31 Aug 14:24:12 14:30:51 29° 48° (NE) 14:37:40 29.400- 29.500
ITAMSAT 1 31 Aug 14:30:15 14:35:15 53° 69° (ENE) 14:40:19 435.822/435.867
VELOX 1 31 Aug 14:31:56 14:34:27 15° 302° (WNW) 14:36:50 145.980
DANDE 31 Aug 14:32:47 14:36:23 14° 280° (W) 14:39:41 436.750
SWISSCUBE 31 Aug 14:33:01 14:36:53 25° 92° (E) 14:40:50 437.505
TISAT 1 31 Aug 15:07:37 15:11:31 35° 293° (WNW) 15:15:23 437.305
Cosmos 2499 31 Aug 15:10:42 15:18:48 40° 64° (ENE) 15:26:33 435.465 / 435.565
ITUPSAT 1 31 Aug 15:10:53 15:15:31 48° 99° (E) 15:20:08 437.325
Oscar 19 31 Aug 15:13:05 15:17:13 23° 270° (W) 15:21:15 437.125/150
RS-15 31 Aug 15:17:31 15:23:28 17° 97° (E) 15:30:15 29.354- 29.394
ISS 31 Aug 15:22:14 15:25:25 54° 207° (SSW) 15:28:36 145.825
KKS-1 31 Aug 15:26:15 15:28:31 14° 87° (E) 15:30:58 437.445
BEESAT 3 31 Aug 15:38:21 15:41:44 26° 118° (ESE) 15:45:11 437.485
HORYU 2 31 Aug 15:39:04 15:43:03 32° 66° (ENE) 15:47:06 437.375
SPROUT 31 Aug 15:39:10 15:41:18 13° 302° (WNW) 15:43:16 437.525
BEESAT 31 Aug 15:44:20 15:49:08 84° 286° (WNW) 15:53:53 436.000
JAS-2 31 Aug 15:44:59 15:52:44 77° 257° (WSW) 16:00:38 435.910
BEESAT 2 31 Aug 15:49:49 15:53:14 26° 117° (ESE) 15:56:42 435.950
Gurwin Techsat 1B 31 Aug 15:50:03 15:54:48 32° 266° (W) 15:59:31 435.225
GONETS M04 31 Aug 15:58:18 16:06:32 46° 272° (W) 16:14:42
SWISSCUBE 31 Aug 16:10:25 16:15:00 47° 291° (WNW) 16:19:32 437.505
ITAMSAT 1 31 Aug 16:10:50 16:15:07 25° 268° (W) 16:19:18 435.822/435.867
AO-7 31 Aug 16:14:26 16:22:49 90° 62° (ENE) 16:31:13 29.400- 29.500
AIST 2 31 Aug 16:24:54 16:27:07 14° 112° (ESE) 16:29:29 435.215
STARS 31 Aug 16:43:34 16:47:52 45° 99° (E) 16:52:09 437.465
ITUPSAT 1 31 Aug 16:49:14 16:53:11 26° 298° (WNW) 16:57:02 437.325
CUTE-I 31 Aug 16:54:30 16:56:54 14° 52° (NE) 16:59:31 437.470
ISS 31 Aug 17:00:00 17:01:17 12° 223° (SW) 17:02:28 145.825
KKS-1 31 Aug 17:01:15 17:05:47 78° 286° (WNW) 17:10:15 437.445
Cosmos 2499 31 Aug 17:03:53 17:12:28 58° 269° (W) 17:20:27 435.465 / 435.565
MOZHAYETS 4 31 Aug 17:11:25 17:15:11 25° 92° (E) 17:19:01
BEESAT 3 31 Aug 17:15:32 17:19:29 46° 317° (NW) 17:23:27 437.485
HORYU 2 31 Aug 17:15:33 17:19:39 33° 264° (W) 17:23:45 437.375
RS-15 31 Aug 17:22:57 17:33:42 66° 120° (ESE) 17:44:59 29.354- 29.394
BEESAT 31 Aug 17:23:43 17:26:19 14° 304° (NW) 17:28:44 436.000
BEESAT 2 31 Aug 17:27:06 17:31:05 46° 317° (NW) 17:35:05 435.950
JAS-2 31 Aug 17:33:42 17:39:08 19° 279° (W) 17:44:14 435.910
Cubesat XI-IV 31 Aug 17:46:37 17:51:13 31° 63° (ENE) 17:55:54 437.490
HO-68 31 Aug 18:00:52 18:01:34 10° 34° (NE) 18:02:34 435.675
AIST 2 31 Aug 18:00:53 18:05:08 85° 309° (NW) 18:09:26 435.215
AO-7 31 Aug 18:10:20 18:16:51 24° 272° (W) 18:23:04 29.400- 29.500
Cosmos 2491 31 Aug 18:16:06 18:19:56 14° 42° (NE) 18:24:12 435.465 / 435.565
STARS 31 Aug 18:20:27 18:24:05 24° 297° (WNW) 18:27:38 437.465
CUTE-I 31 Aug 18:30:52 18:36:07 67° 72° (ENE) 18:41:26 437.470
KKS-1 31 Aug 18:39:46 18:41:42 12° 305° (NW) 18:43:28 437.445
MOZHAYETS 4 31 Aug 18:48:16 18:52:37 42° 291° (WNW) 18:56:54
BEESAT 3 31 Aug 18:56:08 18:58:23 14° 339° (NNW) 19:00:34 437.485
Cosmos 2499 31 Aug 18:59:53 19:03:47 13° 290° (WNW) 19:07:05 435.465 / 435.565
CUBESAT XI-V 31 Aug 19:04:09 19:08:20 33° 95° (E) 19:12:33 437.345
BEESAT 2 31 Aug 19:07:47 19:10:06 14° 339° (NNW) 19:12:21 435.950
BRITE-PL 31 Aug 19:20:59 19:24:58 33° 66° (ENE) 19:29:19 437.365/2234.400
CUTE 1.7 + AOD 2 31 Aug 19:25:11 19:26:01 11° 56° (NE) 19:27:02 437.475
Cubesat XI-IV 31 Aug 19:26:05 19:31:11 46° 261° (W) 19:36:19 437.490
RS-15 31 Aug 19:35:48 19:46:40 54° 328° (NNW) 19:58:01 29.354- 29.394
CANX-2 31 Aug 19:37:24 19:39:48 15° 60° (ENE) 19:42:20 2200.000
PRISM 31 Aug 19:38:08 19:39:45 12° 87° (E) 19:41:33 437.425
HO-68 31 Aug 19:41:04 19:47:20 35° 57° (ENE) 19:53:43 435.675
AIST 2 31 Aug 19:41:06 19:44:20 20° 331° (NNW) 19:47:30 435.215
AIST 1 31 Aug 19:48:54 19:53:14 68° 79° (ENE) 19:57:33
GOMX 1 31 Aug 19:50:42 19:54:58 39° 67° (ENE) 19:59:35 467.674
SEEDS 31 Aug 19:58:48 20:01:34 17° 61° (ENE) 20:04:26 437.485
DOVE 4 31 Aug 20:05:17 20:09:32 35° 66° (ENE) 20:14:05 437.250
O/OREOS (USA 219) 31 Aug 20:10:27 20:14:58 69° 114° (ESE) 20:19:33 437.305
Cosmos 2491 31 Aug 20:11:15 20:19:41 50° 70° (ENE) 20:28:10 435.465 / 435.565
CUTE-I 31 Aug 20:12:47 20:16:46 20° 271° (W) 20:20:37 437.470
COMPASS 1 31 Aug 20:20:30 20:23:42 22° 64° (ENE) 20:26:59 437.405
STRAND 1 31 Aug 20:26:04 20:31:04 53° 100° (E) 20:36:04 437.568
YUBILEINY 31 Aug 20:26:53 20:32:59 22° 77° (ENE) 20:39:26 435.215
AAUSAT CUBESAT 2 31 Aug 20:30:45 20:34:02 23° 64° (ENE) 20:37:24 437.432
CUBESAT XI-V 31 Aug 20:41:35 20:45:47 34° 293° (WNW) 20:49:57 437.345
CUBEBUG 2 31 Aug 20:44:34 20:47:59 21° 61° (ENE) 20:51:34 437.445
ZACube-1 31 Aug 20:46:41 20:48:58 14° 57° (ENE) 20:51:25 437.345
CINEMA 3 31 Aug 20:51:47 20:56:17 44° 68° (ENE) 21:00:59 145.822/145.860
FUNcube-1 31 Aug 20:51:52 20:54:23 15° 58° (ENE) 20:57:03 145.935
UWE-3 31 Aug 20:52:04 20:55:19 19° 61° (ENE) 20:58:42 435.000/436.395/437.385
CUTE 1.7 + AOD 2 31 Aug 20:56:56 21:01:12 72° 74° (ENE) 21:05:29 437.475
DELFI C3 31 Aug 20:57:14 20:59:20 14° 60° (ENE) 21:01:35 145.870
BRITE-PL 31 Aug 20:59:32 21:03:33 32° 267° (W) 21:07:50 437.365/2234.400
CANX-2 31 Aug 21:10:55 21:15:13 76° 257° (WSW) 21:19:32 2200.000
PRISM 31 Aug 21:11:39 21:15:46 76° 286° (WNW) 21:19:52 437.425
AIST 2 31 Aug 21:23:36 21:24:27 10° 355° (N) 21:25:16 435.215
HO-68 31 Aug 21:27:40 21:34:46 62° 258° (WSW) 21:41:55 435.675
AIST 1 31 Aug 21:28:03 21:30:22 14° 276° (W) 21:32:32
GOMX 1 31 Aug 21:29:12 21:33:15 29° 268° (W) 21:37:30 467.674
HUMSAT D 31 Aug 21:32:33 21:34:58 15° 59° (ENE) 21:37:31 437.325/437.525
SEEDS 31 Aug 21:32:44 21:36:57 62° 259° (W) 21:41:11 437.485
DX 1 31 Aug 21:33:37 21:34:19 10° 54° (NE) 21:35:13 434.975-435.025
Oscar 11 31 Aug 21:37:39 21:41:51 50° 70° (ENE) 21:46:05 145.826/435.025
DOVE 4 31 Aug 21:43:01 21:47:18 34° 266° (W) 21:51:49 437.250
UKube-1 31 Aug 21:45:22 21:47:00 12° 56° (NE) 21:48:49 .
O/OREOS (USA 219) 31 Aug 21:51:26 21:54:55 21° 315° (NW) 21:58:22 437.305
RS-15 31 Aug 21:51:44 22:02:07 38° 1° (N) 22:12:57 29.354- 29.394
AISAT 31 Aug 21:54:31 21:55:55 12° 55° (NE) 21:57:30 437.250
COMPASS 1 31 Aug 21:55:03 21:59:07 46° 262° (W) 22:03:11 437.405
AAUSAT CUBESAT 2 31 Aug 22:05:26 22:09:26 42° 262° (W) 22:13:26 437.432
STRAND 1 31 Aug 22:05:47 22:10:01 26° 299° (WNW) 22:14:11 437.568
Cosmos 2491 31 Aug 22:08:23 22:16:35 46° 272° (W) 22:24:42 435.465 / 435.565
BEESAT 3 31 Aug 22:14:50 22:17:30 17° 26° (NNE) 22:20:13 437.485
CUBEBUG 2 31 Aug 22:19:37 22:24:15 62° 259° (W) 22:29:01 437.445
YUBILEINY 31 Aug 22:19:54 22:28:42 88° 101° (E) 22:37:37 435.215
ZACube-1 31 Aug 22:20:04 22:24:39 86° 76° (ENE) 22:29:18 437.345
VELOX 1 31 Aug 22:20:54 22:23:54 19° 60° (ENE) 22:27:00 145.980
FUNcube-1 31 Aug 22:25:31 22:30:06 87° 259° (WSW) 22:34:44 145.935
BEESAT 2 31 Aug 22:26:44 22:29:28 17° 26° (NNE) 22:32:13 435.950
UWE-3 31 Aug 22:26:47 22:31:23 66° 259° (W) 22:36:06 435.000/436.395/437.385
CINEMA 3 31 Aug 22:29:34 22:33:40 27° 269° (W) 22:37:50 145.822/145.860
DELFI C3 31 Aug 22:29:52 22:33:55 73° 258° (WSW) 22:37:59 145.870
CUTE 1.7 + AOD 2 31 Aug 22:35:20 22:37:40 14° 273° (W) 22:39:51 437.475
ANTELSAT 31 Aug 22:46:08 22:48:00 13° 84° (E) 22:50:03 437.575/2403.000
PRISM 31 Aug 22:49:32 22:50:32 11° 304° (NW) 22:51:21 437.425
AIST 2 31 Aug 23:02:35 23:04:45 14° 18° (NNE) 23:06:59 435.215
DX 1 31 Aug 23:05:30 23:09:48 67° 72° (ENE) 23:14:09 434.975-435.025
HUMSAT D 31 Aug 23:05:50 23:10:10 78° 257° (WSW) 23:14:32 437.325/437.525
Cosmos 2504 31 Aug 23:06:18 23:13:06 31° 81° (E) 23:20:19 435.465 / 435.565
50 SAT 31 Aug 23:09:05 23:12:56 52° 71° (ENE) 23:16:48 437.505
ESTCUBE 1 31 Aug 23:14:14 23:18:26 41° 68° (ENE) 23:22:40 437.505/2401.250
Oscar 11 31 Aug 23:15:03 23:18:20 20° 270° (W) 23:21:32 145.826/435.025
M-CUBED/EXP-1 PRIME 31 Aug 23:17:11 23:18:54 13° 91° (E) 23:20:43 437.505
UKube-1 31 Aug 23:18:09 23:22:28 81° 75° (ENE) 23:26:50 .
HO-68 31 Aug 23:21:12 23:24:14 12° 280° (W) 23:26:47 435.675
SPROUT 31 Aug 23:25:32 23:28:13 17° 60° (ENE) 23:31:02 437.525
AISAT 31 Aug 23:27:21 23:31:45 74° 74° (ENE) 23:36:13 437.250
CUBEBUG 1 31 Aug 23:28:18 23:32:25 46° 70° (ENE) 23:36:36 437.445
QB50P2 31 Aug 23:29:59 23:31:46 13° 86° (E) 23:33:47 145.880/145.840
NANOSAT C BR1 31 Aug 23:31:06 23:32:47 12° 86° (E) 23:34:40 145.865
UNISAT 6 31 Aug 23:35:24 23:39:38 35° 95° (E) 23:43:48 437.425
QB50P1 31 Aug 23:43:55 23:46:41 17° 89° (E) 23:49:34 145.935-145.965
BEESAT 3 31 Aug 23:52:07 23:56:10 67° 48° (NE) 00:00:09 437.485
CUSAT 1 31 Aug 23:54:51 23:57:45 18° 80° (E) 00:01:20 437.405
VELOX 1 31 Aug 23:55:40 00:00:02 63° 258° (WSW) 00:04:27 145.980
ZACube-1 31 Aug 23:59:31 00:01:44 13° 275° (W) 00:03:44 437.345
TIGRISAT 01 Sep 00:03:47 00:08:24 63° 102° (ESE) 00:12:51 435.000
BEESAT 2 01 Sep 00:04:09 00:08:15 68° 48° (NE) 00:12:16 435.950
FUNcube-1 01 Sep 00:05:26 00:07:13 12° 276° (W) 00:08:44 145.935
RS-15 01 Sep 00:06:15 00:17:36 55° 32° (NNE) 00:29:28 29.354- 29.394
YUBILEINY 01 Sep 00:19:40 00:26:55 26° 304° (NW) 00:33:58 435.215
ANTELSAT 01 Sep 00:20:54 00:25:33 87° 285° (WNW) 00:30:03 437.575/2403.000
DANDE 01 Sep 00:23:04 00:25:40 18° 82° (E) 00:28:54 436.750
TISAT 1 01 Sep 00:28:04 00:31:56 37° 68° (ENE) 00:35:52 437.305
AIST 2 01 Sep 00:40:26 00:44:26 40° 41° (NE) 00:48:23 435.215
DX 1 01 Sep 00:43:56 00:46:34 15° 272° (W) 00:49:04 434.975-435.025
POLYITAN 1 01 Sep 00:44:23 00:48:42 66° 102° (ESE) 00:52:59 437.675
AUBIESAT-1 01 Sep 00:44:50 00:48:56 87° 109° (ESE) 00:52:40 437.475
50 SAT 01 Sep 00:45:11 00:47:47 16° 270° (W) 00:50:18 437.505
ITUPSAT 1 01 Sep 00:46:42 00:49:20 15° 56° (ENE) 00:52:09 437.325
POPSAT HIP 1 01 Sep 00:46:58 00:51:17 68° 102° (ESE) 00:55:33 437.405
DUCHIFAT 1 01 Sep 00:47:24 00:51:41 66° 101° (E) 00:55:58 145.980
M-CUBED/EXP-1 PRIME 01 Sep 00:50:13 00:54:21 71° 293° (WNW) 00:58:07 437.505
ESTCUBE 1 01 Sep 00:51:41 00:55:28 25° 267° (W) 00:59:11 437.505/2401.250
BUGSAT 1 01 Sep 00:54:53 00:59:03 51° 100° (E) 01:03:14 437.445
Cosmos 2504 01 Sep 00:56:24 01:04:39 72° 283° (WNW) 01:13:18 435.465 / 435.565
UKube-1 01 Sep 00:57:18 00:59:15 12° 274° (W) 01:01:01 .
SPROUT 01 Sep 00:59:33 01:03:50 68° 258° (WSW) 01:08:10 437.525
QB50P2 01 Sep 01:03:58 01:08:19 80° 285° (WNW) 01:12:36 145.880/145.840
NANOSAT C BR1 01 Sep 01:04:57 01:09:16 82° 286° (WNW) 01:13:33 145.865
CUBEBUG 1 01 Sep 01:05:38 01:09:02 22° 269° (W) 01:12:22 437.445
AISAT 01 Sep 01:06:26 01:08:55 14° 273° (W) 01:11:15 437.250
UNISAT 6 01 Sep 01:12:16 01:16:22 31° 295° (WNW) 01:20:18 437.425
SO-50 01 Sep 01:17:18 01:20:44 20° 113° (ESE) 01:24:23 436.795
BEESAT 01 Sep 01:18:17 01:22:14 27° 63° (ENE) 01:26:15 436.000
QB50P1 01 Sep 01:18:42 01:22:58 59° 289° (WNW) 01:27:11 145.935-145.965
BEESAT 3 01 Sep 01:31:00 01:33:39 17° 246° (WSW) 01:36:11 437.485
CUSAT 1 01 Sep 01:35:16 01:39:25 59° 288° (WNW) 01:45:04 437.405
Oscar 19 01 Sep 01:40:52 01:43:38 15° 85° (E) 01:46:37 437.125/150
TIGRISAT 01 Sep 01:41:23 01:44:42 19° 300° (WNW) 01:47:52 435.000
BEESAT 2 01 Sep 01:43:09 01:45:51 17° 246° (WSW) 01:48:24 435.950
SWISSCUBE 01 Sep 01:43:32 01:48:04 46° 68° (ENE) 01:52:39 437.505
ANTELSAT 01 Sep 01:59:12 02:01:39 14° 304° (WNW) 02:03:54 437.575/2403.000
TISAT 1 01 Sep 02:04:13 02:07:48 26° 267° (W) 02:11:21 437.305
DANDE 01 Sep 02:04:27 02:08:06 47° 290° (WNW) 02:13:03 436.750
STARS 01 Sep 02:11:56 02:13:03 11° 54° (NE) 02:14:22 437.465
RS-15 01 Sep 02:19:05 02:30:44 68° 239° (WSW) 02:42:44 29.354- 29.394
AIST 2 01 Sep 02:19:10 02:22:54 31° 241° (WSW) 02:26:34 435.215
PCSat 01 Sep 02:20:40 02:25:25 33° 113° (ESE) 02:30:15 145.827
AUBIESAT-1 01 Sep 02:20:57 02:23:00 13° 310° (NW) 02:24:52 437.475
POLYITAN 1 01 Sep 02:21:16 02:24:09 17° 300° (WNW) 02:26:56 437.675
ITUPSAT 1 01 Sep 02:21:49 02:26:37 90° 62° (ENE) 02:31:25 437.325
Gurwin Techsat 1B 01 Sep 02:23:25 02:25:08 12° 83° (E) 02:27:10 435.225
POPSAT HIP 1 01 Sep 02:23:53 02:26:41 17° 300° (WNW) 02:29:23 437.405
DUCHIFAT 1 01 Sep 02:24:13 02:27:03 17° 300° (WNW) 02:29:46 145.980
M-CUBED/EXP-1 PRIME 01 Sep 02:27:02 02:28:20 11° 313° (NW) 02:29:27 437.505
KKS-1 01 Sep 02:28:09 02:31:35 23° 62° (ENE) 02:35:09 437.445
BUGSAT 1 01 Sep 02:31:01 02:34:13 21° 298° (WNW) 02:37:21 437.445
ITAMSAT 1 01 Sep 02:40:18 02:42:35 13° 85° (E) 02:45:07 435.822/435.867
QB50P2 01 Sep 02:41:50 02:43:31 12° 304° (WNW) 02:45:01 145.880/145.840
NANOSAT C BR1 01 Sep 02:42:41 02:44:26 12° 303° (WNW) 02:46:00 145.865
Cosmos 2504 01 Sep 02:52:42 02:58:46 20° 309° (NW) 03:04:40 435.465 / 435.565
JAS-2 01 Sep 02:52:54 02:56:31 15° 78° (ENE) 03:00:16 435.910
BEESAT 01 Sep 02:55:18 02:59:53 45° 261° (W) 03:04:29 436.000
SO-50 01 Sep 02:55:58 03:00:49 75° 312° (NW) 03:05:48 436.795
GONETS M04 01 Sep 03:07:50 03:15:57 48° 89° (E) 03:24:13
Oscar 19 01 Sep 03:18:34 03:23:49 89° 287° (WNW) 03:29:02 437.125/150
SWISSCUBE 01 Sep 03:22:10 03:26:10 25° 268° (W) 03:30:04 437.505
CUSAT 1 01 Sep 03:22:18 03:23:53 11° 317° (NW) 03:25:19 437.405
STARS 01 Sep 03:44:20 03:48:44 69° 73° (ENE) 03:53:10 437.465
Cosmos 2499 01 Sep 03:53:12 03:59:56 28° 80° (E) 04:07:06 435.465 / 435.565
Gurwin Techsat 1B 01 Sep 04:00:51 04:06:11 75° 102° (ESE) 04:11:31 435.225
ITUPSAT 1 01 Sep 04:03:01 04:05:17 13° 275° (W) 04:07:20 437.325
PCSat 01 Sep 04:03:23 04:08:41 51° 313° (NW) 04:14:00 145.827
KKS-1 01 Sep 04:03:37 04:07:57 50° 260° (W) 04:12:20 437.445
AO-7 01 Sep 04:12:01 04:18:06 23° 87° (E) 04:24:29 29.400- 29.500
MOZHAYETS 4 01 Sep 04:17:18 04:21:35 40° 68° (ENE) 04:25:54
ITAMSAT 1 01 Sep 04:17:47 04:23:00 84° 105° (ESE) 04:28:13 435.822/435.867
RS-15 01 Sep 04:33:24 04:41:16 20° 261° (W) 04:48:34 29.354- 29.394
JAS-2 01 Sep 04:35:58 04:43:14 73° 102° (ESE) 04:49:36 435.910
O/OREOS (USA 219) 01 Sep 04:37:01 04:41:23 40° 55° (NE) 04:45:45 437.305
SO-50 01 Sep 04:38:16 04:42:11 23° 335° (NNW) 04:46:05 436.795
Oscar 19 01 Sep 04:59:12 05:02:32 17° 304° (NW) 05:05:41 437.125/150
HORYU 2 01 Sep 05:02:00 05:06:04 33° 96° (E) 05:10:07 437.375
